Flag for India Weather past 2 weeks in Tiruchirappalli, Tamil Nadu, India

Now
95 °F

Scattered clouds.


Feels Like: 101 °F
Forecast: 80 / 98 °F
Wind: 9 mph from West

Location: Tiruchchirapalli

Current Time: Sep 18, 2014 at 6:02:03 PM

Latest Report: Sep 18, 2014 at 5:10 PM


Visibility: 4 mi

Pressure: 29.68 "Hg

Humidity: 44%

Dew point: 70 °F

Location of TiruchirappalliLocation

Historic Weather in Tiruchirappalli — Graph

°F

Tiruchirappalli temperature yesterday

Maximum temperature yesterday: 100 °F (at 3:40 PM)
Minimum temperature yesterday: 81 °F (at 4:10 AM)
Average temperature yesterday: 90 °F

Past Weeks' High & Low Weather Summary

 TemperatureHumidityPressure
High102 °F (Sep 14, 2:40 PM)84% (Sep 14, 9:10 PM)29.86 "Hg (Sep 14, 9:10 PM)
Low79 °F (Sep 14, 9:10 PM)33% (Sep 16, 2:40 PM)29.59 "Hg (Sep 17, 3:10 PM)
Average88 °F55%29.75 "Hg
* Reported Sep 3 4:40 PM — Sep 18 4:40 PM, Tiruchirappalli, Weather by CustomWeather, © 2014

Note: Actual official high and low records may vary slightly from our data, if they occured in-between our weather recording intervals... More about our weather records

Advertising

Tiruchirappalli weather history for previous 24 hours

 ConditionsComfort  
Time TempWeatherWind HumidityBarometerVisibility
4:40 PM
Sep 18
95 °FScattered clouds.7 mph44%29.65 "Hg4 mi
4:10 PM97 °FPassing clouds.9 mph42%29.65 "Hg4 mi
3:40 PM99 °FScattered clouds.10 mph39%29.65 "Hg4 mi
3:10 PM99 °FScattered clouds.10 mph37%29.65 "Hg4 mi
2:40 PM99 °FScattered clouds.8 mph37%29.68 "Hg4 mi
1:40 PM97 °FScattered clouds.9 mph39%29.68 "Hg4 mi
1:10 PM95 °FScattered clouds.10 mph41%29.68 "Hg4 mi
12:40 PM95 °FScattered clouds.10 mph41%29.71 "Hg4 mi
12:10 PM93 °FScattered clouds.13 mph44%29.71 "Hg4 mi
11:40 AM93 °FScattered clouds.14 mph44%29.74 "Hg4 mi
11:10 AM93 °FScattered clouds.16 mph41%29.74 "Hg4 mi
10:40 AM91 °FScattered clouds.16 mph44%29.74 "Hg4 mi
10:10 AM90 °FScattered clouds.17 mph46%29.77 "Hg4 mi
9:40 AM88 °FScattered clouds.20 mph49%29.77 "Hg4 mi
9:10 AM88 °FScattered clouds.18 mph49%29.77 "Hg3 mi
8:40 AM86 °FBroken clouds.14 mph52%29.77 "Hg3 mi
8:10 AM84 °FBroken clouds.15 mph62%29.74 "Hg3 mi
7:40 AM84 °FBroken clouds.14 mph62%29.74 "Hg3 mi
7:10 AM84 °FBroken clouds.18 mph62%29.71 "Hg3 mi
6:10 AM82 °FPartly cloudy.18 mph66%29.71 "Hg4 mi
5:40 AM82 °FPassing clouds.16 mph66%29.68 "Hg4 mi
5:10 AM82 °FPassing clouds.10 mph62%29.68 "Hg4 mi
4:40 AM82 °FPassing clouds.6 mph62%29.68 "Hg4 mi
4:10 AM82 °FPassing clouds.6 mph58%29.68 "Hg4 mi
3:10 AM82 °FPassing clouds.21 mph62%29.68 "Hg4 mi
2:40 AM84 °FPassing clouds.24 mph55%29.68 "Hg4 mi
12:40 AM86 °FPassing clouds.15 mph62%29.68 "Hg4 mi
12:10 AM86 °FPassing clouds.14 mph62%29.71 "Hg4 mi
11:40 PM
Sep 17
86 °FPassing clouds.15 mph62%29.71 "Hg4 mi
10:40 PM88 °FPassing clouds.7 mph62%29.74 "Hg4 mi
10:10 PM88 °FPassing clouds.7 mph62%29.74 "Hg4 mi
9:40 PM90 °FPassing clouds.12 mph59%29.71 "Hg4 mi
9:10 PM90 °FPassing clouds.9 mph55%29.71 "Hg4 mi
8:40 PM90 °FPassing clouds.3 mph55%29.68 "Hg4 mi
8:10 PM90 °FPassing clouds.5 mph55%29.68 "Hg4 mi
7:40 PM91 °FPassing clouds.5 mph49%29.65 "Hg4 mi
7:10 PM93 °FPassing clouds.6 mph47%29.65 "Hg4 mi
6:40 PM95 °FScattered clouds.6 mph44%29.62 "Hg4 mi
6:10 PM97 °FScattered clouds.6 mph39%29.62 "Hg4 mi
Weather by CustomWeather, © 2014

See weather overviewHow to use our weather pages